DMSP 5D-2 F13 DEB, 40673

Orbit data source: Space-Track

DMSP 5D-2 F13 DEB, 40673 is space debris in SSO originally from a launch on Fri, 24 Mar 1995 UTC launched from the Air Force Western Test Range (AFWTR). Debris objects in space refer to the collection of defunct objects orbiting the Earth. Examples of debris include non-operational satellites, rocket bodies, and fragments generated from explosions, collisions, or faulty payload assembly.

Loading next visibility...
Identifier
40673, 1995-015FM
Orbit
SSO
Country
Flag of USUS
Related business
Manufacturer
Unknown
Mission
Spacecraft
Bus & Motor
Unknown
Mass
Unknown
Launch date (UTC)
1995-03-24 (31 years ago)
Launch vehicle
Unknown
Launch site
Air Force Western Test Range (AFWTR)
Object type
Payload
Rocket body
Debris
Shape & HBR
Unknown shape, 0.1 m
Radar Cross Section
Small (<0.1 m²)

Expand to show TLE details & history
Last TLE update: 18 hours ago

TLE from 18 hours ago
0 DMSP 5D-2 F13 DEB
1 40673U 95015FM  26034.82178480  .00000525  00000-0  25400-3 0  9999
2 40673  98.7032  52.6579 0024041  55.3358 305.0081 14.22548896561777
Epoch: 2026-02-03T19:43Z
TLE epoch observation values (Epoch: 2026-02-03T19:43:22.206Z)
Latitude
-0.00006°
Longitude
-17.18183°
Altitude
809.766 km
Speed
7.454 km/s
True Right ascension
03h 30m 37s
True Declination
0° 00' 00"
Sunlit
Object was in daylight at epoch
Visualization orbit readout
Latitude
Unknown
Longitude
Unknown
Altitude
Unknown
Speed
Unknown
Apparent Right ascension
Unknown
Apparent Declination
Unknown
Sunlit
N/A
Visualization observer readout
Local Sidereal Time
15:35:42
Azimuth
Unknown
Elevation
Unknown
Doppler factor
Unknown
Orbital elements
Apogee altitude
831.191 km
Perigee altitude
796.61 km
Semi-major axis
7,192.037 km
Eccentricity
0.0024
Inclination
98.7032°
RAAN
52.6579°
Arg. of periapsis
55.3358°
True anomaly
304.78207°
Mean anomaly
305.0081°
Eccentric anomaly
304.89512°
Mean motion
3.55849 °/min
Orbital period
101.17 mins
BSTAR
0.000254
Loading maneuver chart data...
Computing Atmospheric mass density...

Documentation

Showing up to 5 results
|